| time (UTC) | temp F | wind direction | speed MPH | gust MPH | rain 1hr in | rain 24hr in | rain mn in | humidity % | barometer mb |
| 20260507000000 | 43 | 239 | 0.0 | 0.0 | 0.00 | 0.74 | 0.50 | 91 | 1010.6 |
| 20260506235500 | 43 | 238 | 0.0 | 0.0 | 0.00 | 0.74 | 0.50 | 90 | 1010.4 |
| 20260506235000 | 44 | 241 | 0.0 | 0.0 | 0.00 | 0.74 | 0.50 | 90 | 1010.4 |
| 20260506234500 | 44 | 242 | 0.0 | 0.0 | 0.00 | 0.74 | 0.50 | 90 | 1010.5 |
| 20260506233500 | 44 | 241 | 0.0 | 0.0 | 0.00 | 0.74 | 0.50 | 90 | 1010.2 |
| 20260506233000 | 44 | 241 | 0.0 | 2.0 | 0.00 | 0.74 | 0.50 | 90 | 1010.3 |
| 20260506232500 | 44 | 242 | 0.0 | 2.0 | 0.00 | 0.74 | 0.50 | 89 | 1010.2 |
| 20260506232000 | 44 | 226 | 0.0 | 1.0 | 0.00 | 0.74 | 0.50 | 89 | 1010.2 |
| 20260506231500 | 44 | 240 | 0.0 | 0.0 | 0.00 | 0.74 | 0.50 | 89 | 1009.9 |
| 20260506230500 | 44 | 240 | 0.0 | 0.0 | 0.00 | 0.74 | 0.50 | 90 | 1009.6 |
| 20260506230001 | 44 | 240 | 0.0 | 0.0 | 0.00 | 0.74 | 0.50 | 89 | 1009.6 |
| 20260506225500 | 44 | 240 | 0.0 | 0.0 | 0.00 | 0.74 | 0.50 | 90 | 1009.7 |
| 20260506225000 | 44 | 240 | 0.0 | 0.0 | 0.00 | 0.74 | 0.50 | 89 | 1009.6 |
| 20260506224501 | 44 | 240 | 0.0 | 1.0 | 0.00 | 0.74 | 0.50 | 89 | 1009.7 |
| 20260506223959 | 44 | 226 | 0.0 | 0.0 | 0.00 | 0.74 | 0.50 | 89 | 1009.9 |
| 20260506223501 | 44 | 226 | 0.0 | 0.0 | 0.00 | 0.74 | 0.50 | 89 | 1009.9 |
| 20260506223000 | 44 | 226 | 0.0 | 0.0 | 0.00 | 0.74 | 0.50 | 90 | 1009.9 |
| 20260506222500 | 44 | 226 | 0.0 | 1.0 | 0.00 | 0.74 | 0.50 | 89 | 1009.9 |
| 20260506221500 | 44 | 259 | 0.0 | 3.0 | 0.00 | 0.74 | 0.50 | 89 | 1010.1 |
| 20260506221001 | 44 | 252 | 1.0 | 3.0 | 0.00 | 0.74 | 0.50 | 89 | 1010.2 |
| 20260506220501 | 44 | 251 | 1.0 | 3.0 | 0.00 | 0.74 | 0.50 | 89 | 1010.1 |
| 20260506220005 | 44 | 262 | 0.0 | 2.0 | 0.00 | 0.74 | 0.50 | 89 | 1010.1 |
| 20260506215501 | 44 | 234 | 1.0 | 4.0 | 0.00 | 0.74 | 0.50 | 89 | 1010.0 |
| 20260506215001 | 44 | 232 | 1.0 | 4.0 | 0.00 | 0.74 | 0.50 | 88 | 1010.0 |
| 20260506214000 | 44 | 254 | 1.0 | 4.0 | 0.00 | 0.74 | 0.50 | 90 | 1009.8 |
| 20260506213500 | 44 | 263 | 1.0 | 3.0 | 0.00 | 0.74 | 0.50 | 89 | 1009.7 |
| 20260506212500 | 44 | 304 | 1.0 | 4.0 | 0.00 | 0.74 | 0.50 | 90 | 1009.7 |
| 20260506212002 | 44 | 276 | 1.0 | 4.0 | 0.00 | 0.74 | 0.50 | 90 | 1009.7 |
| 20260506211502 | 44 | 286 | 1.0 | 5.0 | 0.00 | 0.74 | 0.50 | 90 | 1009.7 |
| 20260506211001 | 44 | 232 | 1.0 | 5.0 | 0.00 | 0.74 | 0.50 | 90 | 1009.6 |
| 20260506210501 | 44 | 276 | 0.0 | 2.0 | 0.00 | 0.74 | 0.50 | 91 | 1009.7 |
| 20260506210001 | 44 | 240 | 1.0 | 3.0 | 0.00 | 0.75 | 0.50 | 90 | 1009.8 |
| 20260506205500 | 43 | 253 | 1.0 | 5.0 | 0.00 | 0.75 | 0.50 | 90 | 1009.7 |
| 20260506205000 | 44 | 281 | 1.0 | 5.0 | 0.00 | 0.75 | 0.50 | 91 | 1009.6 |
| 20260506204502 | 44 | 267 | 0.0 | 2.0 | 0.00 | 0.75 | 0.50 | 91 | 1009.4 |
| 20260506204002 | 43 | 316 | 1.0 | 6.0 | 0.00 | 0.75 | 0.50 | 91 | 1009.4 |
| 20260506203500 | 43 | 284 | 1.0 | 7.0 | 0.00 | 0.75 | 0.50 | 91 | 1009.3 |
| 20260506203000 | 44 | 264 | 1.0 | 3.0 | 0.00 | 0.75 | 0.50 | 92 | 1009.2 |
| 20260506202501 | 43 | 243 | 1.0 | 3.0 | 0.00 | 0.75 | 0.50 | 92 | 1009.2 |
| 20260506201500 | 43 | 146 | 1.0 | 6.0 | 0.00 | 0.75 | 0.50 | 93 | 1009.0 |
| 20260506201000 | 43 | 242 | 1.0 | 3.0 | 0.00 | 0.75 | 0.50 | 93 | 1009.0 |
| 20260506200500 | 43 | 123 | 1.0 | 4.0 | 0.00 | 0.75 | 0.50 | 93 | 1009.0 |
| 20260506200000 | 43 | 205 | 1.0 | 4.0 | 0.01 | 0.75 | 0.50 | 93 | 1009.2 |
| 20260506195500 | 43 | 285 | 0.0 | 4.0 | 0.01 | 0.75 | 0.50 | 93 | 1009.1 |
| 20260506195000 | 43 | 252 | 0.0 | 1.0 | 0.01 | 0.75 | 0.50 | 93 | 1009.1 |
| 20260506194501 | 43 | 274 | 0.0 | 1.0 | 0.01 | 0.75 | 0.50 | 93 | 1009.1 |
| 20260506194000 | 43 | 298 | 0.0 | 2.0 | 0.01 | 0.75 | 0.50 | 93 | 1009.1 |
| 20260506193459 | 43 | 347 | 1.0 | 3.0 | 0.01 | 0.75 | 0.50 | 93 | 1009.1 |
| 20260506193000 | 43 | 245 | 1.0 | 6.0 | 0.01 | 0.75 | 0.50 | 93 | 1009.2 |
| 20260506192500 | 43 | 234 | 1.0 | 6.0 | 0.01 | 0.75 | 0.50 | 93 | 1009.1 |
| 20260506191959 | 43 | 302 | 0.0 | 4.0 | 0.01 | 0.75 | 0.50 | 93 | 1009.0 |
| 20260506191500 | 43 | 237 | 1.0 | 3.0 | 0.01 | 0.75 | 0.50 | 94 | 1008.9 |
| 20260506190959 | 43 | 193 | 1.0 | 4.0 | 0.01 | 0.75 | 0.50 | 93 | 1008.8 |
| 20260506190500 | 43 | 348 | 1.0 | 4.0 | 0.01 | 0.75 | 0.50 | 93 | 1008.7 |
| 20260506190001 | 43 | 248 | 0.0 | 4.0 | 0.00 | 0.87 | 0.49 | 94 | 1008.7 |
| 20260506185500 | 43 | 195 | 1.0 | 3.0 | 0.00 | 0.87 | 0.49 | 93 | 1008.7 |
| 20260506184959 | 43 | 224 | 1.0 | 3.0 | 0.00 | 0.87 | 0.49 | 93 | 1008.7 |
| 20260506184500 | 43 | 287 | 1.0 | 2.0 | 0.00 | 0.87 | 0.49 | 93 | 1008.8 |
| 20260506183500 | 44 | 261 | 1.0 | 4.0 | 0.00 | 0.87 | 0.49 | 93 | 1008.7 |
| 20260506183000 | 44 | 11 | 0.0 | 2.0 | 0.00 | 0.87 | 0.49 | 93 | 1008.6 |
| 20260506182500 | 44 | 45 | 0.0 | 4.0 | 0.00 | 0.87 | 0.49 | 93 | 1008.5 |
| 20260506182001 | 44 | 233 | 0.0 | 3.0 | 0.01 | 0.87 | 0.49 | 93 | 1008.4 |
| 20260506181500 | 44 | 259 | 0.0 | 2.0 | 0.01 | 0.87 | 0.49 | 93 | 1008.3 |
| 20260506181001 | 44 | 27 | 0.0 | 3.0 | 0.01 | 0.87 | 0.49 | 93 | 1008.2 |
| 20260506180500 | 44 | 27 | 0.0 | 3.0 | 0.01 | 0.87 | 0.49 | 94 | 1008.2 |
| 20260506180000 | 44 | 82 | 0.0 | 3.0 | 0.01 | 1.00 | 0.49 | 94 | 1008.1 |
| 20260506175501 | 44 | 189 | 0.0 | 4.0 | 0.01 | 1.00 | 0.49 | 94 | 1008.0 |
| 20260506174959 | 44 | 266 | 0.0 | 4.0 | 0.01 | 1.00 | 0.49 | 94 | 1008.0 |
| 20260506174459 | 44 | 82 | 0.0 | 1.0 | 0.01 | 1.00 | 0.49 | 94 | 1007.8 |
| 20260506174000 | 44 | 228 | 0.0 | 3.0 | 0.01 | 1.00 | 0.49 | 94 | 1007.8 |
| 20260506173501 | 44 | 227 | 0.0 | 3.0 | 0.01 | 1.00 | 0.49 | 94 | 1007.9 |
| 20260506173000 | 44 | 254 | 0.0 | 2.0 | 0.01 | 1.00 | 0.49 | 94 | 1007.9 |
| 20260506172500 | 44 | 239 | 0.0 | 2.0 | 0.02 | 1.00 | 0.49 | 94 | 1007.9 |
| 20260506172001 | 44 | 269 | 0.0 | 3.0 | 0.01 | 0.99 | 0.48 | 94 | 1007.8 |
| 20260506171500 | 44 | 264 | 0.0 | 3.0 | 0.01 | 0.99 | 0.48 | 94 | 1007.7 |
| 20260506170501 | 44 | 58 | 0.0 | 2.0 | 0.01 | 0.99 | 0.48 | 94 | 1007.7 |
| 20260506170000 | 44 | 58 | 0.0 | 2.0 | 0.02 | 0.99 | 0.48 | 94 | 1007.7 |
| 20260506164500 | 44 | 231 | 0.0 | 2.0 | 0.04 | 0.99 | 0.48 | 94 | 1007.8 |
| 20260506163459 | 44 | 65 | 0.0 | 1.0 | 0.05 | 0.99 | 0.48 | 94 | 1007.9 |
| 20260506162959 | 44 | 227 | 0.0 | 0.0 | 0.05 | 0.99 | 0.48 | 94 | 1007.8 |
| 20260506162500 | 44 | 227 | 0.0 | 0.0 | 0.04 | 0.98 | 0.47 | 94 | 1007.8 |
| 20260506162001 | 44 | 243 | 0.0 | 0.0 | 0.05 | 0.98 | 0.47 | 94 | 1007.8 |
| 20260506161500 | 43 | 240 | 0.0 | 0.0 | 0.05 | 0.98 | 0.47 | 94 | 1007.9 |
| 20260506161001 | 43 | 240 | 0.0 | 0.0 | 0.05 | 0.98 | 0.47 | 94 | 1008.0 |
| 20260506160500 | 43 | 239 | 0.0 | 0.0 | 0.05 | 0.98 | 0.47 | 94 | 1008.0 |
| 20260506160001 | 43 | 239 | 0.0 | 1.0 | 0.04 | 0.97 | 0.46 | 94 | 1008.1 |
| 20260506155500 | 43 | 236 | 0.0 | 2.0 | 0.04 | 0.97 | 0.46 | 94 | 1008.1 |
| 20260506155000 | 43 | 65 | 0.0 | 2.0 | 0.03 | 0.96 | 0.45 | 94 | 1008.1 |
| 20260506154459 | 43 | 92 | 0.0 | 0.0 | 0.03 | 0.95 | 0.44 | 94 | 1008.1 |
| 20260506154000 | 43 | 306 | 0.0 | 0.0 | 0.03 | 0.95 | 0.44 | 94 | 1008.1 |
| 20260506153500 | 43 | 337 | 0.0 | 0.0 | 0.02 | 0.94 | 0.43 | 94 | 1008.2 |
| 20260506152459 | 43 | 75 | 0.0 | 0.0 | 0.03 | 0.94 | 0.43 | 94 | 1008.2 |
| 20260506152001 | 43 | 248 | 0.0 | 2.0 | 0.02 | 0.93 | 0.42 | 94 | 1008.1 |
| 20260506151502 | 43 | 50 | 0.0 | 2.0 | 0.03 | 0.93 | 0.42 | 94 | 1007.8 |
| 20260506151000 | 43 | 72 | 0.0 | 1.0 | 0.03 | 0.93 | 0.42 | 94 | 1007.9 |
| 20260506150459 | 43 | 307 | 0.0 | 1.0 | 0.03 | 0.93 | 0.42 | 94 | 1008.0 |
| 20260506145459 | 43 | 63 | 0.0 | 0.0 | 0.04 | 0.93 | 0.42 | 94 | 1007.5 |
| 20260506145000 | 43 | 62 | 0.0 | 0.0 | 0.04 | 0.93 | 0.42 | 94 | 1007.6 |
| 20260506144500 | 43 | 62 | 0.0 | 2.0 | 0.03 | 0.92 | 0.41 | 94 | 1007.6 |
| 20260506144001 | 43 | 68 | 1.0 | 2.0 | 0.03 | 0.92 | 0.41 | 94 | 1007.4 |
| 20260506143501 | 43 | 35 | 1.0 | 2.0 | 0.04 | 0.92 | 0.41 | 94 | 1007.4 |
| 20260506143002 | 43 | 75 | 0.0 | 2.0 | 0.05 | 0.92 | 0.41 | 94 | 1007.6 |
| 20260506142501 | 43 | 62 | 0.0 | 1.0 | 0.04 | 0.91 | 0.40 | 94 | 1007.5 |
| 20260506141959 | 43 | 62 | 1.0 | 2.0 | 0.05 | 0.91 | 0.40 | 94 | 1007.7 |
| 20260506141501 | 42 | 84 | 1.0 | 2.0 | 0.04 | 0.90 | 0.39 | 94 | 1007.6 |
| 20260506141001 | 42 | 53 | 0.0 | 2.0 | 0.05 | 0.90 | 0.39 | 94 | 1007.6 |
| 20260506140500 | 42 | 13 | 0.0 | 2.0 | 0.06 | 0.90 | 0.39 | 94 | 1007.8 |
| 20260506140002 | 42 | 63 | 1.0 | 3.0 | 0.07 | 0.90 | 0.39 | 94 | 1007.8 |
| 20260506135502 | 42 | 76 | 1.0 | 2.0 | 0.08 | 0.89 | 0.38 | 94 | 1007.8 |
| 20260506135000 | 42 | 59 | 1.0 | 2.0 | 0.09 | 0.89 | 0.38 | 94 | 1007.9 |
| 20260506134500 | 42 | 71 | 1.0 | 2.0 | 0.10 | 0.89 | 0.38 | 94 | 1007.9 |
| 20260506134001 | 42 | 46 | 1.0 | 2.0 | 0.11 | 0.89 | 0.38 | 94 | 1008.0 |
| 20260506133502 | 42 | 100 | 1.0 | 4.0 | 0.11 | 0.88 | 0.37 | 94 | 1008.0 |
| 20260506133002 | 42 | 55 | 1.0 | 4.0 | 0.10 | 0.87 | 0.36 | 94 | 1007.9 |
| 20260506132501 | 42 | 56 | 1.0 | 2.0 | 0.11 | 0.87 | 0.36 | 94 | 1008.1 |
| 20260506132002 | 42 | 56 | 1.0 | 2.0 | 0.11 | 0.86 | 0.35 | 94 | 1007.9 |
| 20260506131501 | 42 | 51 | 0.0 | 2.0 | 0.11 | 0.86 | 0.35 | 94 | 1007.9 |
| 20260506130959 | 42 | 57 | 0.0 | 2.0 | 0.11 | 0.85 | 0.34 | 94 | 1008.0 |
| 20260506130500 | 42 | 63 | 0.0 | 2.0 | 0.11 | 0.84 | 0.33 | 94 | 1008.0 |
| 20260506130003 | 42 | 68 | 0.0 | 1.0 | 0.09 | 0.82 | 0.31 | 94 | 1008.0 |
| 20260506125501 | 42 | 64 | 0.0 | 1.0 | 0.09 | 0.81 | 0.30 | 94 | 1008.0 |
| 20260506125001 | 42 | 65 | 1.0 | 3.0 | 0.08 | 0.80 | 0.29 | 94 | 1008.0 |
| 20260506124459 | 42 | 63 | 0.0 | 2.0 | 0.07 | 0.79 | 0.28 | 94 | 1008.0 |
| 20260506124000 | 42 | 32 | 0.0 | 2.0 | 0.06 | 0.78 | 0.27 | 94 | 1008.1 |
| 20260506123501 | 42 | 65 | 0.0 | 2.0 | 0.05 | 0.77 | 0.26 | 94 | 1007.9 |
| 20260506122501 | 42 | 72 | 0.0 | 1.0 | 0.05 | 0.76 | 0.25 | 94 | 1007.8 |
| 20260506122000 | 42 | 88 | 1.0 | 2.0 | 0.04 | 0.75 | 0.24 | 94 | 1007.8 |
| 20260506121500 | 42 | 53 | 1.0 | 3.0 | 0.05 | 0.75 | 0.24 | 94 | 1007.7 |
| 20260506121000 | 42 | 57 | 1.0 | 3.0 | 0.04 | 0.74 | 0.23 | 94 | 1007.6 |
| 20260506120501 | 42 | 70 | 1.0 | 3.0 | 0.04 | 0.73 | 0.22 | 94 | 1007.8 |
| 20260506120001 | 42 | 61 | 1.0 | 3.0 | 0.05 | 0.73 | 0.22 | 94 | 1007.8 |
| 20260506115459 | 42 | 44 | 1.0 | 3.0 | 0.06 | 0.72 | 0.21 | 94 | 1007.8 |
| 20260506115001 | 43 | 49 | 0.0 | 3.0 | 0.06 | 0.72 | 0.21 | 94 | 1007.7 |
| 20260506114501 | 43 | 45 | 0.0 | 2.0 | 0.07 | 0.72 | 0.21 | 94 | 1007.9 |
| 20260506114000 | 43 | 35 | 1.0 | 3.0 | 0.07 | 0.72 | 0.21 | 94 | 1008.0 |
| 20260506113001 | 43 | 66 | 0.0 | 3.0 | 0.07 | 0.71 | 0.20 | 94 | 1007.9 |
| 20260506112459 | 43 | 56 | 0.0 | 2.0 | 0.07 | 0.71 | 0.20 | 94 | 1008.1 |
| 20260506112000 | 43 | 69 | 0.0 | 2.0 | 0.08 | 0.71 | 0.20 | 93 | 1008.1 |
| 20260506111500 | 43 | 68 | 0.0 | 0.0 | 0.07 | 0.70 | 0.19 | 93 | 1008.2 |
| 20260506110959 | 43 | 70 | 0.0 | 0.0 | 0.07 | 0.70 | 0.19 | 94 | 1008.4 |
| 20260506110459 | 43 | 70 | 0.0 | 1.0 | 0.06 | 0.69 | 0.18 | 93 | 1008.5 |
| 20260506105501 | 43 | 68 | 0.0 | 0.0 | 0.04 | 0.66 | 0.15 | 93 | 1008.4 |
| 20260506105000 | 43 | 44 | 1.0 | 3.0 | 0.04 | 0.66 | 0.15 | 93 | 1008.3 |
| 20260506104501 | 43 | 57 | 1.0 | 3.0 | 0.03 | 0.65 | 0.14 | 93 | 1008.1 |
| 20260506104000 | 43 | 32 | 1.0 | 2.0 | 0.04 | 0.65 | 0.14 | 93 | 1008.0 |
| 20260506103459 | 42 | 63 | 1.0 | 2.0 | 0.03 | 0.64 | 0.13 | 93 | 1008.0 |
| 20260506103000 | 42 | 79 | 2.0 | 2.0 | 0.04 | 0.64 | 0.13 | 93 | 1008.0 |
| 20260506102001 | 42 | 35 | 0.0 | 3.0 | 0.03 | 0.63 | 0.12 | 93 | 1008.0 |
| 20260506101501 | 43 | 70 | 0.0 | 0.0 | 0.04 | 0.63 | 0.12 | 93 | 1008.0 |
| 20260506101001 | 43 | 109 | 0.0 | 1.0 | 0.04 | 0.63 | 0.12 | 93 | 1007.9 |
| 20260506100500 | 43 | 105 | 0.0 | 3.0 | 0.04 | 0.63 | 0.12 | 93 | 1007.9 |
| 20260506100001 | 42 | 66 | 0.0 | 3.0 | 0.04 | 0.63 | 0.12 | 93 | 1007.9 |
| 20260506095500 | 43 | 93 | 1.0 | 3.0 | 0.04 | 0.62 | 0.11 | 93 | 1008.0 |
| 20260506094500 | 42 | 57 | 2.0 | 4.0 | 0.05 | 0.62 | 0.11 | 93 | 1008.0 |
| 20260506094001 | 43 | 63 | 1.0 | 4.0 | 0.04 | 0.61 | 0.10 | 93 | 1008.1 |
| 20260506093500 | 43 | 63 | 1.0 | 4.0 | 0.04 | 0.61 | 0.10 | 93 | 1008.3 |
| 20260506093000 | 43 | 57 | 1.0 | 4.0 | 0.04 | 0.60 | 0.09 | 93 | 1008.5 |
| 20260506092500 | 43 | 51 | 1.0 | 4.0 | 0.04 | 0.60 | 0.09 | 93 | 1008.5 |
| 20260506092000 | 43 | 55 | 1.0 | 3.0 | 0.05 | 0.60 | 0.09 | 93 | 1008.6 |
| 20260506091500 | 43 | 35 | 1.0 | 3.0 | 0.05 | 0.59 | 0.08 | 93 | 1008.7 |
| 20260506091000 | 43 | 35 | 1.0 | 3.0 | 0.05 | 0.59 | 0.08 | 93 | 1008.7 |
| 20260506090001 | 43 | 304 | 1.0 | 3.0 | 0.06 | 0.59 | 0.08 | 93 | 1008.7 |
| 20260506085501 | 43 | 68 | 1.0 | 3.0 | 0.06 | 0.59 | 0.07 | 93 | 1008.9 |
| 20260506085000 | 43 | 29 | 1.0 | 4.0 | 0.06 | 0.59 | 0.07 | 93 | 1008.8 |
| 20260506084501 | 43 | 41 | 1.0 | 4.0 | 0.06 | 0.58 | 0.06 | 92 | 1008.9 |
| 20260506084000 | 43 | 59 | 1.0 | 3.0 | 0.06 | 0.58 | 0.06 | 92 | 1008.6 |
| 20260506083500 | 43 | 98 | 1.0 | 3.0 | 0.05 | 0.57 | 0.05 | 92 | 1008.4 |
| 20260506082959 | 44 | 266 | 1.0 | 5.0 | 0.05 | 0.57 | 0.05 | 92 | 1008.9 |
| 20260506082500 | 44 | 93 | 2.0 | 5.0 | 0.05 | 0.57 | 0.05 | 92 | 1008.4 |
| 20260506082001 | 44 | 300 | 2.0 | 5.0 | 0.04 | 0.56 | 0.04 | 92 | 1008.8 |
| 20260506081500 | 44 | 52 | 2.0 | 5.0 | 0.03 | 0.55 | 0.03 | 91 | 1008.6 |
| 20260506081000 | 45 | 62 | 2.0 | 5.0 | 0.03 | 0.55 | 0.03 | 91 | 1008.8 |
| 20260506080459 | 45 | 51 | 2.0 | 6.0 | 0.02 | 0.54 | 0.02 | 92 | 1008.5 |
| 20260506073000 | 46 | 60 | 2.0 | 3.0 | 0.00 | 0.53 | 0.00 | 92 | 1008.2 |
| 20260506072001 | 46 | 51 | 2.0 | 3.0 | 0.00 | 0.53 | 0.00 | 92 | 1008.1 |
| 20260506071501 | 46 | 57 | 1.0 | 3.0 | 0.00 | 0.53 | 0.00 | 92 | 1008.1 |
| 20260506071000 | 46 | 72 | 1.0 | 3.0 | 0.00 | 0.53 | 0.00 | 92 | 1008.0 |
| 20260506070501 | 47 | 32 | 1.0 | 3.0 | 0.00 | 0.53 | 0.00 | 93 | 1008.3 |
| 20260506061958 | 46 | 106 | 0.0 | 0.0 | 0.00 | 0.53 | 0.00 | 92 | 1008.7 |
| 20260506061459 | 47 | 105 | 0.0 | 0.0 | 0.00 | 0.53 | 0.00 | 92 | 1008.9 |
| 20260506060959 | 47 | 110 | 0.0 | 0.0 | 0.00 | 0.53 | 0.00 | 92 | 1009.0 |
| 20260506060459 | 47 | 110 | 0.0 | 2.0 | 0.00 | 0.53 | 0.00 | 92 | 1009.0 |
| 20260506050458 | 47 | 87 | 0.0 | 2.0 | 0.00 | 0.53 | 0.00 | 92 | 1009.6 |
| 20260506045001 | 47 | 85 | 0.0 | 2.0 | 0.00 | 0.53 | 0.00 | 92 | 1010.0 |
| 20260506044001 | 47 | 86 | 0.0 | 2.0 | 0.01 | 0.53 | 0.00 | 92 | 1010.0 |
| 20260506043502 | 47 | 34 | 0.0 | 2.0 | 0.02 | 0.53 | 0.00 | 92 | 1010.0 |
| 20260506043002 | 47 | 111 | 0.0 | 2.0 | 0.03 | 0.53 | 0.00 | 92 | 1009.8 |
| 20260506042501 | 47 | 110 | 0.0 | 1.0 | 0.04 | 0.53 | 0.00 | 92 | 1010.1 |
| 20260506042003 | 47 | 110 | 0.0 | 2.0 | 0.05 | 0.53 | 0.00 | 92 | 1010.0 |
| 20260506041501 | 47 | 108 | 0.0 | 2.0 | 0.06 | 0.53 | 0.00 | 92 | 1009.7 |
| 20260506040502 | 47 | 101 | 0.0 | 2.0 | 0.06 | 0.53 | 0.00 | 92 | 1009.9 |
| 20260506035501 | 47 | 105 | 0.0 | 1.0 | 0.07 | 0.53 | 0.53 | 92 | 1009.9 |
| 20260506035002 | 47 | 105 | 0.0 | 1.0 | 0.07 | 0.53 | 0.53 | 92 | 1009.9 |
| 20260506034502 | 47 | 85 | 0.0 | 0.0 | 0.08 | 0.53 | 0.53 | 92 | 1010.1 |
| 20260506034002 | 47 | 84 | 0.0 | 0.0 | 0.08 | 0.52 | 0.52 | 92 | 1010.0 |
| 20260506033502 | 47 | 97 | 0.0 | 0.0 | 0.08 | 0.51 | 0.51 | 92 | 1010.5 |
| 20260506033003 | 47 | 96 | 0.0 | 0.0 | 0.07 | 0.50 | 0.50 | 92 | 1010.1 |
| 20260506032502 | 47 | 95 | 0.0 | 0.0 | 0.07 | 0.49 | 0.49 | 92 | 1009.9 |
| 20260506031503 | 47 | 97 | 0.0 | 1.0 | 0.07 | 0.47 | 0.47 | 92 | 1010.3 |
| 20260506031002 | 47 | 98 | 0.0 | 0.0 | 0.08 | 0.47 | 0.47 | 92 | 1010.2 |
| 20260506030502 | 47 | 58 | 0.0 | 0.0 | 0.09 | 0.47 | 0.47 | 91 | 1010.3 |
| 20260506030003 | 47 | 58 | 0.0 | 0.0 | 0.09 | 0.46 | 0.46 | 91 | 1010.0 |
| 20260506025502 | 47 | 58 | 0.0 | 0.0 | 0.09 | 0.46 | 0.46 | 91 | 1010.2 |
| 20260506025001 | 47 | 291 | 0.0 | 0.0 | 0.09 | 0.45 | 0.45 | 91 | 1010.4 |
| 20260506024002 | 47 | 291 | 0.0 | 0.0 | 0.10 | 0.44 | 0.44 | 91 | 1010.5 |
| 20260506023500 | 47 | 291 | 0.0 | 0.0 | 0.09 | 0.43 | 0.43 | 91 | 1010.3 |
| 20260506023002 | 47 | 231 | 0.0 | 0.0 | 0.09 | 0.43 | 0.43 | 90 | 1010.5 |
| 20260506022501 | 47 | 230 | 0.0 | 0.0 | 0.09 | 0.42 | 0.42 | 90 | 1010.6 |
| 20260506022002 | 47 | 244 | 0.0 | 0.0 | 0.08 | 0.41 | 0.41 | 90 | 1010.5 |
| 20260506021502 | 47 | 244 | 0.0 | 0.0 | 0.07 | 0.40 | 0.40 | 90 | 1010.5 |
| 20260506021002 | 47 | 244 | 0.0 | 1.0 | 0.06 | 0.39 | 0.39 | 90 | 1010.6 |
| 20260506020500 | 47 | 245 | 0.0 | 2.0 | 0.04 | 0.37 | 0.37 | 90 | 1010.8 |
| 20260506020001 | 47 | 212 | 0.0 | 2.0 | 0.05 | 0.37 | 0.37 | 90 | 1010.6 |
| 20260506015501 | 47 | 51 | 0.0 | 2.0 | 0.05 | 0.37 | 0.37 | 89 | 1010.1 |
| 20260506015001 | 47 | 50 | 0.0 | 2.0 | 0.04 | 0.36 | 0.36 | 89 | 1009.8 |
| 20260506014500 | 47 | 247 | 0.0 | 0.0 | 0.04 | 0.35 | 0.35 | 89 | 1009.9 |
| 20260506014001 | 47 | 247 | 0.0 | 0.0 | 0.03 | 0.34 | 0.34 | 88 | 1010.1 |
| 20260506013500 | 47 | 247 | 0.0 | 0.0 | 0.03 | 0.34 | 0.34 | 88 | 1010.1 |
| 20260506013000 | 47 | 247 | 0.0 | 0.0 | 0.03 | 0.34 | 0.34 | 88 | 1010.1 |
| 20260506012500 | 47 | 347 | 0.0 | 0.0 | 0.03 | 0.33 | 0.33 | 88 | 1010.2 |
| 20260506011501 | 47 | 347 | 0.0 | 0.0 | 0.04 | 0.33 | 0.33 | 87 | 1010.2 |
| 20260506011001 | 47 | 53 | 0.0 | 0.0 | 0.04 | 0.33 | 0.33 | 86 | 1010.2 |
| 20260506010000 | 47 | 53 | 0.0 | 0.0 | 0.03 | 0.32 | 0.32 | 85 | 1010.1 |
| 20260506005500 | 48 | 52 | 0.0 | 0.0 | 0.03 | 0.32 | 0.32 | 84 | 1010.0 |
| 20260506005001 | 48 | 52 | 0.0 | 0.0 | 0.03 | 0.32 | 0.32 | 84 | 1009.9 |
| 20260506003501 | 50 | 355 | 1.0 | 5.0 | 0.02 | 0.31 | 0.31 | 78 | 1010.0 |
| 20260506003000 | 51 | 250 | 1.0 | 3.0 | 0.02 | 0.31 | 0.31 | 76 | 1009.8 |
| 20260506002500 | 52 | 39 | 1.0 | 3.0 | 0.01 | 0.30 | 0.30 | 72 | 1009.9 |
| 20260506002000 | 53 | 219 | 1.0 | 3.0 | 0.00 | 0.29 | 0.29 | 67 | 1009.9 |
| 20260506001500 | 54 | 214 | 1.0 | 4.0 | 0.00 | 0.29 | 0.29 | 65 | 1009.4 |
| 20260506000500 | 54 | 329 | 1.0 | 3.0 | 0.00 | 0.29 | 0.29 | 64 | 1009.1 |